KOMPSAT-3A

Last updated on Sun Apr 12 2026 00:02:35 GMT+0000 (Coordinated Universal Time)

1 40536U 15014A 26101.52675395 .00025252 00000+0 40650-3 0 9994 2 40536 97.6896 88.1868 0062543 61.6676 299.0864 15.50685568611472
UTC large
Height (km)
Speed (km/s)
/
Latitude / Longitude
Inclination (degrees)
Orbital Period (minutes)
Azimuth
Elevation
Range (km)
Doppler Factor

Next 0 passes for location: London (51.5072 / 0.1276)

Sorry there are no passes over London.
KOMPSAT-3A